Location: Marse
(42.1502°N, 110.9866°W)
Time: 22:51:58
(UTC+00:00)

QB50P2 - Pass Details

Date: 07 July 2022
Orbit: 590 x 605 km, 97.9° (Epoch: 18 August)

Event Time Altitude Azimuth Distance (km) Brightness Sun altitude
Rises 07:36:45 0° 33° (NNE) 2,865 ? -25.3°
Reaches altitude 10° 07:39:56 10° 59° (ENE) 1,958 ? -25.2°
Enters shadow 07:42:08 14° 91° (E) 1,711 ? -25.2°
